QPF
0.03 0.03 0.03 0.03 0.03 0.02 0.02 0.02 0.04 0.06 0.07 0.05 0.04 0.03 0.02 0.02 0.01 0.01 0.01 0.06 0.16 0.11 0.06 0.07 0.09 0.09 0.07 0.05 0.04 0.05 0.05 0.06 0.06 0.05 0.06 0.06 0.05 0.03 0.02 0.02 0.03 0.05 0.04
0.03 0.03 0.03 0.03 0.03 0.02 0.03 0.03 0.03 0.05 0.07 0.07 0.06 0.05 0.04 0.03 0.01 0.01 0.01 0.04 0.14 0.15 0.09 0.07 0.08 0.07 0.07 0.06 0.04 0.03 0.03 0.04 0.04 0.03 0.04 0.05 0.06 0.04 0.03 0.02 0.02 0.05 0.06
0.03 0.03 0.03 0.02 0.01 0.02 0.03 0.03 0.03 0.03 0.05 0.08 0.09 0.08 0.07 0.06 0.04 0.03 0.02 0.04 0.06 0.08 0.08 0.07 0.05 0.06 0.07 0.06 0.04 0.03 0.02 0.02 0.02 0.02 0.03 0.04 0.05 0.05 0.04 0.03 0.03 0.04 0.05
0.02 0.02 0.02 0.02 0.01 0.01 0.01 0.01 0.02 0.02 0.02 0.04 0.07 0.08 0.07 0.06 0.05 0.04 0.04 0.05 0.05 0.04 0.04 0.05 0.05 0.06 0.07 0.05 0.03 0.02 0.02 0.02 0.02 0.02 0.03 0.04 0.04 0.05 0.06 0.05 0.05 0.04 0.05
0.03 0.02 0.02 0.02 0.02 0.01 0.01 0.02 0.02 0.02 0.02 0.02 0.04 0.05 0.06 0.07 0.05 0.03 0.02 0.03 0.04 0.04 0.03 0.04 0.06 0.06 0.06 0.06 0.04 0.02 0.02 0.01 0.02 0.02 0.03 0.03 0.03 0.04 0.06 0.06 0.07 0.06 0.06
0.03 0.02 0.02 0.02 0.02 0.02 0.01 0.01 0.02 0.02 0.02 0.02 0.03 0.03 0.04 0.06 0.06 0.05 0.03 0.02 0.02 0.03 0.03 0.03 0.06 0.09 0.09 0.07 0.04 0.02 0.02 0.02 0.02 0.02 0.03 0.03 0.03 0.03 0.05 0.06 0.07 0.08 0.09
0.03 0.02 0.02 0.02 0.02 0.02 0.01 0.01 0.01 0.02 0.02 0.02 0.02 0.02 0.03 0.04 0.05 0.04 0.03 0.02 0.01 0.01 0.02 0.02 0.03 0.07 0.09 0.09 0.06 0.04 0.03 0.03 0.03 0.02 0.03 0.03 0.03 0.03 0.04 0.05 0.06 0.07 0.09
0.04 0.02 0.02 0.01 0.02 0.01 0.01 0.01 0.02 0.02 0.02 0.02 0.02 0.02 0.02 0.02 0.03 0.03 0.03 0.01 0.01 0.01 0.01 0.01 0.01 0.02 0.04 0.04 0.03 0.03 0.03 0.03 0.03 0.03 0.02 0.03 0.03 0.03 0.03 0.05 0.06 0.07 0.08
0.04 0.03 0.02 0.01 0.01 0.01 0.01 0.01 0.01 0.02 0.02 0.01 0.01 0.02 0.02 0.02 0.02 0.02 0.01 0.01 0.01 0.00 0.01 0.01 0.01 0.01 0.01 0.02 0.03 0.03 0.03 0.03 0.03 0.02 0.02 0.02 0.02 0.03 0.03 0.03 0.04 0.06 0.07
0.04 0.03 0.03 0.02 0.01 0.01 0.01 0.01 0.01 0.01 0.02 0.01 0.01 0.01 0.01 0.01 0.01 0.01 0.01 0.00 0.00 0.00 0.00 0.01 0.01 0.01 0.01 0.01 0.01 0.02 0.03 0.03 0.02 0.02 0.02 0.02 0.02 0.03 0.03 0.03 0.04 0.05 0.05
0.05 0.04 0.03 0.03 0.02 0.01 0.01 0.01 0.01 0.02 0.02 0.02 0.01 0.01 0.01 0.01 0.01 0.01 0.01 0.00 0.00 0.00 0.00 0.00 0.01 0.01 0.02 0.02 0.02 0.02 0.02 0.02 0.02 0.02 0.02 0.02 0.02 0.03 0.03 0.03 0.03 0.04 0.04
0.07 0.06 0.04 0.05 0.04 0.02 0.01 0.01 0.01 0.02 0.02 0.02 0.02 0.02 0.02 0.02 0.01 0.01 0.01 0.01 0.00 0.00 0.00 0.00 0.00 0.01 0.01 0.02 0.02 0.01 0.01 0.01 0.02 0.02 0.02 0.02 0.02 0.02 0.02 0.02 0.02 0.03 0.03
0.05 0.06 0.06 0.06 0.06 0.04 0.02 0.01 0.01 0.02 0.03 0.02 0.02 0.02 0.02 0.01 0.01 0.01 0.01 0.01 0.01 0.00 0.00 0.00 0.01 0.01 0.01 0.01 0.01 0.02 0.02 0.02 0.02 0.02 0.02 0.02 0.02 0.02 0.02 0.02 0.02 0.02 0.02
0.05 0.04 0.06 0.07 0.07 0.06 0.05 0.03 0.02 0.02 0.03 0.03 0.03 0.02 0.02 0.01 0.01 0.01 0.01 0.01 0.01 0.01 0.01 0.00 0.00 0.00 0.01 0.01 0.01 0.01 0.01 0.01 0.02 0.02 0.02 0.02 0.02 0.02 0.02 0.02 0.02 0.01 0.01
0.04 0.04 0.05 0.06 0.06 0.07 0.05 0.04 0.03 0.03 0.03 0.03 0.03 0.03 0.02 0.01 0.01 0.01 0.01 0.01 0.02 0.02 0.01 0.01 0.00 0.00 0.00 0.01 0.01 0.01 0.01 0.01 0.02 0.02 0.02 0.02 0.03 0.03 0.02 0.02 0.02 0.01 0.01
0.03 0.04 0.05 0.04 0.05 0.06 0.05 0.04 0.03 0.03 0.04 0.04 0.04 0.03 0.03 0.02 0.02 0.02 0.02 0.01 0.01 0.01 0.01 0.01 0.01 0.01 0.01 0.01 0.01 0.01 0.01 0.02 0.02 0.02 0.02 0.02 0.03 0.03 0.03 0.02 0.02 0.02 0.02
0.03 0.04 0.03 0.03 0.03 0.04 0.04 0.03 0.02 0.02 0.02 0.03 0.04 0.04 0.04 0.03 0.03 0.03 0.03 0.02 0.02 0.01 0.01 0.01 0.01 0.01 0.01 0.01 0.01 0.01 0.01 0.02 0.02 0.02 0.02 0.02 0.02 0.02 0.03 0.03 0.03 0.03 0.03
0.04 0.02 0.01 0.01 0.02 0.02 0.03 0.03 0.02 0.02 0.01 0.01 0.02 0.03 0.03 0.03 0.03 0.03 0.03 0.03 0.02 0.01 0.01 0.01 0.01 0.01 0.01 0.01 0.01 0.01 0.01 0.02 0.02 0.03 0.03 0.03 0.03 0.03 0.03 0.03 0.03 0.03 0.03
0.03 0.02 0.01 0.01 0.01 0.01 0.02 0.02 0.02 0.02 0.01 0.01 0.02 0.03 0.03 0.03 0.03 0.03 0.03 0.04 0.03 0.02 0.01 0.01 0.01 0.01 0.01 0.01 0.01 0.01 0.02 0.02 0.02 0.03 0.03 0.04 0.04 0.04 0.04 0.04 0.03 0.03 0.03
0.02 0.02 0.01 0.01 0.01 0.01 0.02 0.02 0.01 0.02 0.01 0.02 0.02 0.03 0.03 0.03 0.03 0.02 0.03 0.03 0.03 0.03 0.02 0.02 0.01 0.01 0.01 0.01 0.01 0.01 0.02 0.02 0.02 0.02 0.03 0.03 0.04 0.04 0.04 0.04 0.03 0.03 0.03
0.02 0.02 0.01 0.01 0.01 0.01 0.02 0.02 0.02 0.02 0.02 0.02 0.02 0.03 0.03 0.04 0.03 0.03 0.03 0.03 0.03 0.03 0.03 0.02 0.01 0.01 0.01 0.01 0.01 0.01 0.01 0.02 0.02 0.02 0.02 0.02 0.03 0.02 0.03 0.04 0.03 0.03 0.03
0.03 0.02 0.01 0.01 0.01 0.01 0.01 0.02 0.03 0.02 0.02 0.02 0.02 0.03 0.04 0.04 0.04 0.04 0.04 0.04 0.03 0.02 0.03 0.02 0.02 0.01 0.01 0.01 0.01 0.01 0.02 0.02 0.02 0.02 0.02 0.02 0.02 0.02 0.02 0.02 0.03 0.03 0.02
0.03 0.02 0.01 0.01 0.01 0.01 0.01 0.02 0.03 0.03 0.02 0.02 0.02 0.03 0.05 0.05 0.05 0.04 0.04 0.03 0.02 0.02 0.02 0.02 0.02 0.01 0.01 0.01 0.01 0.01 0.02 0.02 0.02 0.02 0.02 0.02 0.02 0.02 0.02 0.03 0.02 0.02 0.02
0.03 0.02 0.02 0.01 0.01 0.01 0.02 0.02 0.02 0.02 0.02 0.02 0.02 0.03 0.03 0.04 0.05 0.05 0.05 0.03 0.02 0.02 0.02 0.02 0.02 0.02 0.02 0.01 0.01 0.02 0.02 0.03 0.03 0.03 0.02 0.02 0.02 0.02 0.02 0.02 0.02 0.01 0.01
0.03 0.02 0.02 0.02 0.01 0.01 0.01 0.02 0.02 0.02 0.02 0.02 0.02 0.02 0.02 0.03 0.04 0.06 0.06 0.05 0.04 0.03 0.02 0.02 0.02 0.03 0.03 0.03 0.03 0.03 0.04 0.05 0.05 0.05 0.04 0.04 0.03 0.03 0.03 0.02 0.01 0.01 0.01
0.04 0.03 0.02 0.02 0.02 0.01 0.01 0.01 0.02 0.01 0.02 0.02 0.02 0.02 0.02 0.03 0.04 0.05 0.05 0.05 0.05 0.04 0.03 0.03 0.03 0.03 0.03 0.02 0.03 0.02 0.03 0.04 0.04 0.04 0.04 0.04 0.04 0.03 0.03 0.02 0.01 0.01 0.01
MSLP
1020.37 1019.88 1019.29 1018.64 1017.98 1017.38 1016.88 1016.53 1016.34 1016.29 1016.38 1016.56 1016.81 1017.12 1017.45 1017.81 1018.17 1018.53 1018.86 1019.17 1019.43 1019.65 1019.84 1020.00 1020.17 1020.36 1020.59 1020.85 1021.14 1021.44 1021.72 1021.97 1022.17 1022.32 1022.44 1022.55 1022.66 1022.79 1022.94 1023.09 1023.23 1023.33 1023.37
1020.65 1020.20 1019.64 1019.00 1018.34 1017.70 1017.14 1016.70 1016.38 1016.21 1016.16 1016.24 1016.41 1016.66 1016.97 1017.33 1017.72 1018.11 1018.48 1018.82 1019.12 1019.36 1019.57 1019.75 1019.93 1020.13 1020.37 1020.64 1020.94 1021.25 1021.55 1021.81 1022.04 1022.22 1022.37 1022.50 1022.63 1022.77 1022.93 1023.09 1023.25 1023.37 1023.44
1020.84 1020.43 1019.91 1019.32 1018.69 1018.05 1017.46 1016.94 1016.52 1016.22 1016.05 1016.00 1016.07 1016.24 1016.50 1016.84 1017.22 1017.63 1018.03 1018.40 1018.73 1019.00 1019.22 1019.42 1019.61 1019.82 1020.06 1020.34 1020.64 1020.96 1021.27 1021.55 1021.79 1022.00 1022.18 1022.35 1022.51 1022.69 1022.86 1023.05 1023.22 1023.36 1023.47
1020.95 1020.58 1020.12 1019.59 1019.01 1018.40 1017.80 1017.24 1016.74 1016.33 1016.02 1015.84 1015.78 1015.85 1016.04 1016.33 1016.69 1017.10 1017.52 1017.91 1018.26 1018.57 1018.82 1019.04 1019.25 1019.47 1019.72 1019.99 1020.29 1020.60 1020.91 1021.20 1021.47 1021.71 1021.93 1022.13 1022.33 1022.54 1022.76 1022.97 1023.17 1023.34 1023.49
1020.98 1020.65 1020.26 1019.80 1019.29 1018.73 1018.14 1017.55 1016.99 1016.48 1016.05 1015.74 1015.55 1015.50 1015.59 1015.81 1016.12 1016.51 1016.93 1017.34 1017.73 1018.07 1018.36 1018.62 1018.86 1019.09 1019.34 1019.61 1019.90 1020.21 1020.51 1020.81 1021.10 1021.37 1021.63 1021.88 1022.13 1022.39 1022.64 1022.89 1023.12 1023.33 1023.50
1020.94 1020.65 1020.32 1019.94 1019.50 1019.01 1018.45 1017.85 1017.25 1016.65 1016.11 1015.66 1015.33 1015.15 1015.13 1015.25 1015.51 1015.86 1016.27 1016.70 1017.11 1017.50 1017.84 1018.15 1018.43 1018.69 1018.96 1019.23 1019.52 1019.82 1020.12 1020.42 1020.73 1021.03 1021.33 1021.64 1021.94 1022.25 1022.56 1022.85 1023.11 1023.35 1023.56
1020.85 1020.58 1020.31 1020.00 1019.64 1019.20 1018.69 1018.10 1017.46 1016.80 1016.16 1015.59 1015.13 1014.81 1014.66 1014.68 1014.85 1015.15 1015.53 1015.96 1016.41 1016.83 1017.23 1017.60 1017.93 1018.24 1018.54 1018.84 1019.14 1019.44 1019.74 1020.05 1020.38 1020.71 1021.06 1021.42 1021.80 1022.17 1022.53 1022.87 1023.17 1023.44 1023.67
1020.68 1020.44 1020.21 1019.96 1019.67 1019.30 1018.84 1018.27 1017.62 1016.91 1016.19 1015.51 1014.93 1014.48 1014.20 1014.09 1014.16 1014.39 1014.72 1015.13 1015.59 1016.05 1016.51 1016.94 1017.34 1017.71 1018.06 1018.40 1018.72 1019.04 1019.36 1019.69 1020.04 1020.42 1020.82 1021.24 1021.68 1022.12 1022.55 1022.95 1023.30 1023.60 1023.84
1020.44 1020.21 1020.00 1019.81 1019.57 1019.27 1018.86 1018.33 1017.69 1016.96 1016.18 1015.42 1014.73 1014.16 1013.74 1013.51 1013.46 1013.58 1013.84 1014.21 1014.66 1015.14 1015.64 1016.13 1016.60 1017.05 1017.47 1017.86 1018.23 1018.59 1018.94 1019.31 1019.70 1020.12 1020.58 1021.07 1021.58 1022.10 1022.60 1023.06 1023.46 1023.80 1024.07
1020.12 1019.87 1019.69 1019.53 1019.35 1019.10 1018.75 1018.27 1017.65 1016.92 1016.12 1015.30 1014.52 1013.84 1013.30 1012.94 1012.75 1012.76 1012.92 1013.22 1013.62 1014.10 1014.62 1015.16 1015.70 1016.23 1016.72 1017.19 1017.63 1018.05 1018.45 1018.87 1019.31 1019.79 1020.32 1020.88 1021.46 1022.06 1022.63 1023.16 1023.63 1024.01 1024.32
1019.70 1019.44 1019.26 1019.12 1018.98 1018.78 1018.48 1018.05 1017.48 1016.78 1015.97 1015.13 1014.29 1013.53 1012.88 1012.38 1012.06 1011.93 1011.98 1012.18 1012.52 1012.96 1013.49 1014.06 1014.66 1015.25 1015.84 1016.39 1016.91 1017.41 1017.89 1018.38 1018.88 1019.43 1020.01 1020.64 1021.30 1021.97 1022.62 1023.22 1023.75 1024.19 1024.53
1019.18 1018.90 1018.71 1018.58 1018.46 1018.30 1018.06 1017.69 1017.17 1016.50 1015.73 1014.88 1014.01 1013.19 1012.45 1011.85 1011.40 1011.14 1011.06 1011.15 1011.40 1011.79 1012.29 1012.88 1013.52 1014.19 1014.85 1015.50 1016.12 1016.71 1017.28 1017.85 1018.43 1019.04 1019.69 1020.39 1021.11 1021.84 1022.55 1023.21 1023.80 1024.29 1024.69
1018.57 1018.25 1018.04 1017.91 1017.80 1017.68 1017.47 1017.15 1016.69 1016.08 1015.34 1014.51 1013.65 1012.80 1012.01 1011.32 1010.78 1010.40 1010.20 1010.18 1010.34 1010.66 1011.12 1011.71 1012.38 1013.10 1013.85 1014.60 1015.32 1016.02 1016.69 1017.36 1018.02 1018.70 1019.41 1020.15 1020.92 1021.69 1022.44 1023.15 1023.79 1024.33 1024.77
1017.87 1017.52 1017.28 1017.13 1017.02 1016.91 1016.73 1016.45 1016.04 1015.48 1014.80 1014.01 1013.18 1012.33 1011.52 1010.80 1010.18 1009.72 1009.43 1009.32 1009.39 1009.64 1010.06 1010.63 1011.32 1012.10 1012.93 1013.77 1014.61 1015.42 1016.21 1016.97 1017.72 1018.47 1019.24 1020.01 1020.81 1021.59 1022.36 1023.09 1023.74 1024.32 1024.79
1017.09 1016.71 1016.45 1016.27 1016.15 1016.03 1015.86 1015.61 1015.23 1014.72 1014.08 1013.36 1012.57 1011.76 1010.98 1010.25 1009.62 1009.12 1008.77 1008.59 1008.60 1008.79 1009.18 1009.73 1010.44 1011.26 1012.16 1013.09 1014.05 1014.98 1015.89 1016.76 1017.60 1018.42 1019.23 1020.04 1020.83 1021.61 1022.36 1023.07 1023.72 1024.30 1024.79
1016.26 1015.86 1015.57 1015.37 1015.22 1015.08 1014.90 1014.64 1014.28 1013.80 1013.22 1012.55 1011.83 1011.09 1010.36 1009.68 1009.07 1008.57 1008.21 1008.00 1007.97 1008.13 1008.49 1009.03 1009.75 1010.60 1011.57 1012.60 1013.66 1014.72 1015.75 1016.74 1017.69 1018.58 1019.44 1020.25 1021.04 1021.79 1022.50 1023.16 1023.77 1024.32 1024.80
1015.39 1014.98 1014.67 1014.45 1014.27 1014.09 1013.88 1013.60 1013.23 1012.77 1012.22 1011.61 1010.96 1010.30 1009.66 1009.06 1008.52 1008.06 1007.73 1007.52 1007.48 1007.62 1007.96 1008.49 1009.22 1010.11 1011.13 1012.25 1013.42 1014.61 1015.77 1016.89 1017.94 1018.92 1019.82 1020.66 1021.43 1022.14 1022.79 1023.38 1023.93 1024.42 1024.86
1014.52 1014.11 1013.79 1013.54 1013.32 1013.10 1012.84 1012.52 1012.13 1011.66 1011.13 1010.57 1010.00 1009.43 1008.88 1008.38 1007.92 1007.54 1007.25 1007.08 1007.05 1007.18 1007.51 1008.03 1008.76 1009.68 1010.75 1011.95 1013.23 1014.54 1015.84 1017.09 1018.26 1019.34 1020.31 1021.17 1021.94 1022.61 1023.19 1023.71 1024.18 1024.60 1024.99
1013.65 1013.25 1012.93 1012.66 1012.41 1012.13 1011.81 1011.44 1011.00 1010.51 1009.99 1009.47 1008.96 1008.47 1008.02 1007.62 1007.26 1006.96 1006.73 1006.59 1006.57 1006.70 1007.01 1007.52 1008.25 1009.19 1010.31 1011.58 1012.96 1014.40 1015.84 1017.23 1018.53 1019.72 1020.77 1021.69 1022.46 1023.11 1023.65 1024.10 1024.49 1024.84 1025.16
1012.78 1012.40 1012.08 1011.79 1011.50 1011.17 1010.79 1010.35 1009.86 1009.34 1008.82 1008.32 1007.86 1007.45 1007.08 1006.77 1006.49 1006.25 1006.07 1005.96 1005.94 1006.07 1006.36 1006.86 1007.58 1008.53 1009.69 1011.03 1012.51 1014.06 1015.64 1017.17 1018.62 1019.93 1021.09 1022.07 1022.88 1023.54 1024.06 1024.47 1024.80 1025.09 1025.36
1011.89 1011.54 1011.22 1010.91 1010.57 1010.19 1009.74 1009.24 1008.70 1008.15 1007.63 1007.14 1006.72 1006.35 1006.05 1005.79 1005.57 1005.38 1005.22 1005.12 1005.11 1005.21 1005.49 1005.96 1006.68 1007.64 1008.84 1010.24 1011.80 1013.47 1015.17 1016.85 1018.43 1019.88 1021.15 1022.23 1023.11 1023.80 1024.34 1024.74 1025.05 1025.31 1025.54
1010.97 1010.63 1010.30 1009.97 1009.58 1009.14 1008.64 1008.09 1007.51 1006.93 1006.40 1005.92 1005.52 1005.19 1004.92 1004.69 1004.50 1004.32 1004.17 1004.06 1004.02 1004.11 1004.37 1004.83 1005.54 1006.53 1007.76 1009.22 1010.86 1012.63 1014.45 1016.25 1017.96 1019.53 1020.92 1022.10 1023.07 1023.84 1024.42 1024.86 1025.19 1025.45 1025.68
1009.98 1009.63 1009.29 1008.91 1008.49 1008.00 1007.45 1006.85 1006.25 1005.66 1005.12 1004.65 1004.27 1003.95 1003.69 1003.47 1003.27 1003.08 1002.91 1002.78 1002.73 1002.80 1003.05 1003.52 1004.25 1005.26 1006.54 1008.06 1009.78 1011.63 1013.54 1015.44 1017.26 1018.93 1020.42 1021.70 1022.77 1023.62 1024.29 1024.80 1025.18 1025.49 1025.75
1008.90 1008.52 1008.14 1007.72 1007.25 1006.72 1006.14 1005.52 1004.91 1004.32 1003.80 1003.34 1002.96 1002.65 1002.38 1002.14 1001.91 1001.70 1001.50 1001.35 1001.28 1001.36 1001.63 1002.13 1002.91 1003.98 1005.32 1006.91 1008.69 1010.60 1012.58 1014.54 1016.42 1018.16 1019.73 1021.09 1022.24 1023.19 1023.95 1024.55 1025.03 1025.41 1025.75
1007.72 1007.29 1006.86 1006.39 1005.87 1005.31 1004.71 1004.10 1003.49 1002.93 1002.43 1001.99 1001.62 1001.30 1001.01 1000.75 1000.48 1000.23 1000.01 999.86 999.81 999.92 1000.24 1000.82 1001.68 1002.83 1004.25 1005.90 1007.74 1009.69 1011.69 1013.67 1015.57 1017.33 1018.93 1020.34 1021.56 1022.58 1023.44 1024.15 1024.74 1025.24 1025.67
1006.44 1005.95 1005.46 1004.94 1004.38 1003.80 1003.20 1002.61 1002.04 1001.52 1001.05 1000.64 1000.28 999.95 999.64 999.34 999.05 998.78 998.55 998.41 998.41 998.59 999.01 999.70 1000.67 1001.93 1003.44 1005.16 1007.04 1009.01 1011.00 1012.95 1014.82 1016.55 1018.13 1019.55 1020.79 1021.88 1022.82 1023.64 1024.35 1024.97 1025.52
Thickness
5627 5626 5626 5626 5626 5626 5625 5625 5625 5624 5623 5622 5621 5621 5620 5619 5618 5618 5619 5620 5621 5622 5623 5624 5624 5624 5624 5624 5624 5624 5624 5624 5623 5622 5622 5622 5622 5622 5621 5622 5622 5622 5622
5619 5619 5619 5618 5618 5618 5617 5617 5616 5616 5615 5614 5613 5612 5612 5611 5610 5610 5610 5611 5611 5612 5613 5614 5615 5616 5615 5616 5616 5615 5615 5615 5614 5614 5613 5613 5614 5613 5613 5613 5614 5614 5613
5611 5611 5610 5610 5610 5610 5609 5609 5608 5607 5606 5605 5604 5604 5603 5602 5602 5602 5602 5602 5602 5602 5603 5604 5605 5606 5606 5607 5607 5606 5606 5606 5605 5605 5605 5605 5605 5605 5605 5605 5605 5605 5604
5602 5602 5601 5602 5601 5601 5601 5600 5599 5598 5597 5596 5596 5595 5595 5594 5593 5593 5593 5593 5593 5593 5593 5593 5594 5595 5596 5597 5597 5597 5597 5597 5596 5596 5596 5596 5596 5596 5596 5596 5595 5595 5595
5593 5593 5593 5593 5592 5592 5592 5591 5590 5590 5588 5587 5587 5586 5586 5585 5585 5584 5584 5583 5583 5583 5583 5583 5584 5585 5586 5587 5587 5587 5587 5588 5587 5587 5587 5587 5586 5586 5586 5586 5586 5586 5586
5584 5584 5584 5583 5583 5583 5582 5582 5581 5580 5579 5579 5578 5577 5576 5576 5576 5576 5575 5575 5575 5574 5574 5574 5575 5575 5576 5576 5576 5576 5577 5578 5578 5578 5577 5577 5577 5577 5576 5576 5576 5575 5576
5574 5574 5574 5574 5574 5574 5572 5572 5571 5571 5569 5569 5568 5567 5567 5567 5567 5567 5567 5566 5566 5565 5565 5566 5566 5565 5565 5565 5565 5566 5567 5567 5568 5568 5568 5567 5567 5567 5566 5566 5566 5565 5565
5565 5565 5564 5564 5564 5564 5562 5562 5562 5560 5559 5559 5558 5557 5556 5556 5558 5559 5558 5557 5557 5557 5557 5557 5557 5557 5556 5556 5555 5555 5556 5556 5557 5557 5557 5557 5556 5556 5556 5556 5555 5555 5554
5555 5554 5554 5554 5554 5554 5553 5552 5552 5552 5550 5549 5549 5549 5548 5547 5547 5549 5549 5548 5548 5548 5548 5548 5548 5548 5547 5547 5546 5545 5545 5545 5545 5546 5546 5546 5545 5545 5545 5545 5545 5544 5544
5544 5544 5544 5544 5544 5544 5543 5543 5542 5542 5542 5540 5539 5539 5539 5540 5538 5538 5539 5539 5539 5539 5540 5539 5539 5539 5538 5538 5537 5536 5535 5535 5535 5535 5535 5535 5535 5535 5535 5535 5534 5533 5533
5533 5533 5533 5533 5533 5533 5533 5532 5532 5532 5532 5531 5530 5529 5529 5529 5529 5529 5529 5529 5529 5530 5530 5531 5530 5529 5529 5528 5528 5527 5526 5525 5525 5525 5525 5525 5525 5525 5525 5525 5524 5523 5522
5522 5522 5522 5522 5522 5522 5522 5522 5522 5522 5521 5521 5521 5521 5521 5520 5520 5520 5519 5518 5518 5520 5521 5521 5521 5521 5520 5519 5518 5518 5517 5517 5516 5516 5515 5515 5514 5514 5514 5514 5513 5512 5512
5512 5512 5512 5512 5511 5512 5512 5511 5511 5511 5511 5511 5511 5511 5511 5512 5512 5511 5510 5509 5508 5509 5510 5511 5512 5512 5511 5510 5509 5508 5508 5508 5507 5507 5506 5505 5504 5504 5503 5503 5503 5502 5501
5503 5502 5502 5502 5502 5501 5501 5501 5500 5500 5500 5500 5501 5501 5501 5502 5502 5502 5501 5499 5497 5498 5499 5500 5501 5502 5501 5500 5500 5500 5499 5499 5498 5498 5496 5496 5495 5494 5493 5492 5492 5491 5490
5494 5493 5493 5492 5491 5491 5491 5490 5490 5490 5489 5489 5490 5490 5491 5491 5492 5492 5491 5491 5489 5488 5490 5490 5490 5492 5492 5491 5491 5490 5490 5490 5489 5488 5487 5486 5485 5484 5483 5482 5481 5480 5479
5484 5483 5483 5483 5482 5481 5480 5480 5479 5479 5479 5479 5479 5480 5481 5481 5481 5482 5482 5481 5481 5480 5480 5481 5481 5482 5482 5481 5481 5481 5481 5480 5479 5478 5478 5477 5476 5475 5474 5472 5470 5469 5468
5476 5475 5475 5474 5473 5472 5470 5470 5470 5469 5469 5469 5470 5470 5471 5471 5471 5472 5472 5472 5471 5471 5471 5472 5471 5472 5471 5471 5471 5471 5470 5470 5469 5468 5468 5467 5466 5465 5464 5462 5460 5458 5458
5468 5468 5467 5466 5465 5464 5462 5461 5461 5461 5460 5460 5461 5461 5462 5462 5462 5462 5462 5462 5463 5462 5461 5462 5462 5461 5461 5461 5461 5460 5460 5459 5458 5458 5457 5456 5455 5454 5453 5452 5450 5448 5447
5460 5460 5459 5458 5458 5456 5455 5454 5453 5453 5453 5453 5453 5453 5453 5453 5454 5454 5454 5454 5454 5454 5453 5452 5453 5451 5451 5451 5450 5449 5448 5447 5446 5446 5445 5444 5443 5442 5441 5440 5439 5438 5437
5453 5452 5452 5451 5450 5449 5448 5447 5446 5446 5445 5446 5446 5446 5446 5446 5447 5447 5446 5446 5446 5445 5444 5443 5443 5442 5441 5441 5439 5438 5438 5436 5435 5435 5434 5432 5431 5430 5430 5430 5429 5428 5426
5445 5445 5444 5443 5442 5441 5441 5440 5440 5439 5438 5439 5439 5439 5439 5440 5440 5440 5440 5440 5438 5437 5436 5434 5433 5433 5432 5431 5430 5429 5427 5426 5425 5424 5423 5422 5421 5421 5419 5419 5417 5416 5415
5437 5436 5435 5434 5434 5435 5435 5434 5434 5433 5432 5432 5432 5432 5432 5432 5433 5433 5434 5433 5432 5430 5429 5427 5425 5425 5425 5424 5422 5420 5417 5415 5415 5415 5413 5412 5411 5410 5409 5409 5408 5407 5405
5428 5428 5427 5427 5427 5428 5428 5428 5428 5426 5425 5425 5425 5425 5425 5425 5425 5426 5426 5426 5425 5424 5423 5421 5419 5418 5417 5417 5415 5412 5409 5406 5405 5404 5402 5402 5401 5400 5399 5399 5398 5397 5396
5420 5420 5420 5420 5420 5421 5421 5422 5421 5420 5419 5418 5418 5418 5418 5418 5418 5419 5419 5418 5417 5417 5416 5414 5413 5412 5411 5409 5407 5405 5401 5398 5396 5393 5392 5391 5391 5390 5390 5389 5389 5388 5386
5413 5413 5412 5412 5413 5413 5414 5415 5414 5413 5412 5411 5411 5411 5411 5411 5412 5412 5412 5411 5410 5409 5408 5407 5405 5404 5403 5401 5398 5395 5391 5389 5387 5385 5382 5381 5381 5381 5382 5381 5379 5378 5376
5406 5406 5405 5405 5406 5407 5407 5408 5407 5406 5405 5405 5404 5404 5404 5405 5405 5406 5405 5404 5403 5402 5401 5399 5396 5395 5393 5391 5389 5387 5384 5380 5378 5376 5374 5371 5370 5369 5371 5372 5370 5368 5367